ATLAS 5 CENTAUR DEB, 44682

Orbit data source: Space-Track

ATLAS 5 CENTAUR DEB, 44682 is space debris in HEO originally from a launch on Wed, 17 Oct 2018 UTC launched from the Air Force Eastern Test Range (AFETR). Debris objects in space refer to the collection of defunct objects orbiting the Earth. Examples of debris include non-operational satellites, rocket bodies, and fragments generated from explosions, collisions, or faulty payload assembly.

Loading next visibility...
Identifier
44682, 2018-079AU
Orbit
HEO
Country
Flag of USUS
Related business
Flag of USUnited Launch Alliance/Lockheed Martin (US)
Manufacturer
ULA Decatur
Mission
Spacecraft
Bus & Motor
Unknown
Mass
Unknown
Launch date (UTC)
2018-10-17 (7 years ago)
Launch vehicle
Unknown
Launch site
Air Force Eastern Test Range (AFETR)
Object type
Payload
Rocket body
Debris
Shape & HBR
Unknown shape, 1.1 m
Radar Cross Section
RCS unknown

Expand to show TLE details & history
Last TLE update: 1 week ago

TLE from 1 week ago
0 ATLAS 5 CENTAUR DEB
1 44682U 18079AU  25292.19997259 -.00000085  00000-0  00000-0 0  9994
2 44682  13.1311  56.5291 4629731 271.5460  37.9864  1.81924667 42479
Epoch: 2025-10-19T04:47Z
TLE epoch observation values (Epoch: 2025-10-19T04:47:57.631Z)
Latitude
-0.00002°
Longitude
-43.41925°
Altitude
15,596.178 km
Speed
4.713 km/s
True Right ascension
03h 45m 57s
True Declination
0° 00' 00"
Sunlit
Object was in daylight at epoch
Visualization orbit readout
Latitude
Unknown
Longitude
Unknown
Altitude
Unknown
Speed
Unknown
Apparent Right ascension
Unknown
Apparent Declination
Unknown
Sunlit
N/A
Visualization observer readout
Local Sidereal Time
05:04:58
Azimuth
Unknown
Elevation
Unknown
Doppler factor
Unknown
Orbital elements
Apogee altitude
35,092.649 km
Perigee altitude
8,844.923 km
Semi-major axis
28,346.923 km
Eccentricity
0.46297
Inclination
13.1311°
RAAN
56.5291°
Arg. of periapsis
271.546°
True anomaly
88.6614°
Mean anomaly
37.9864°
Eccentric anomaly
61.24075°
Mean motion
0.45476 °/min
Orbital period
791.62 mins
BSTAR
0
Loading maneuver chart data...
Computing Atmospheric mass density...

Documentation

Showing up to 5 results
|